| time (UTC) | temp F | wind direction | speed MPH | gust MPH | rain 1hr in | rain 24hr in | rain mn in | humidity % | barometer mb |
| 20260902045637 | 81 | 116 | 1.0 | 2.0 | 0.00 | 0.00 | 0.00 | 79 | 1017.1 |
| 20260902045137 | 81 | 109 | 1.0 | 3.0 | 0.00 | 0.00 | 0.00 | 79 | 1017.1 |
| 20260902044637 | 81 | 100 | 1.0 | 4.0 | 0.00 | 0.00 | 0.00 | 78 | 1017.2 |
| 20260902044137 | 82 | 143 | 1.0 | 3.0 | 0.00 | 0.00 | 0.00 | 78 | 1017.1 |
| 20260902043637 | 82 | 153 | 1.0 | 4.0 | 0.00 | 0.00 | 0.00 | 78 | 1017.1 |
| 20260902043137 | 82 | 172 | 1.0 | 5.0 | 0.00 | 0.00 | 0.00 | 78 | 1017.1 |
| 20260902042637 | 82 | 164 | 0.0 | 3.0 | 0.00 | 0.00 | 0.00 | 78 | 1017.1 |
| 20260902042137 | 82 | 176 | 1.0 | 2.0 | 0.00 | 0.00 | 0.00 | 77 | 1017.1 |
| 20260902041637 | 82 | 134 | 1.0 | 4.0 | 0.00 | 0.00 | 0.00 | 77 | 1017.1 |
| 20260902041137 | 82 | 113 | 1.0 | 3.0 | 0.00 | 0.00 | 0.00 | 77 | 1017.0 |
| 20260902040637 | 82 | 154 | 1.0 | 5.0 | 0.00 | 0.00 | 0.00 | 77 | 1017.1 |
| 20260902040137 | 82 | 141 | 1.0 | 4.0 | 0.00 | 0.00 | 0.00 | 77 | 1017.2 |
| 20260902035637 | 83 | 174 | 1.0 | 3.0 | 0.00 | 0.00 | 0.00 | 78 | 1017.3 |
| 20260902035137 | 83 | 176 | 1.0 | 3.0 | 0.00 | 0.00 | 0.00 | 75 | 1017.3 |
| 20260902034637 | 84 | 158 | 1.0 | 3.0 | 0.00 | 0.00 | 0.00 | 75 | 1017.3 |
| 20260902034137 | 84 | 162 | 1.0 | 3.0 | 0.00 | 0.00 | 0.00 | 75 | 1017.3 |
| 20260902033637 | 84 | 141 | 1.0 | 1.0 | 0.00 | 0.00 | 0.00 | 74 | 1017.4 |
| 20260902033137 | 83 | 100 | 1.0 | 3.0 | 0.00 | 0.00 | 0.00 | 74 | 1017.4 |
| 20260902032637 | 83 | 174 | 1.0 | 3.0 | 0.00 | 0.00 | 0.00 | 74 | 1017.3 |
| 20260902032137 | 83 | 161 | 1.0 | 3.0 | 0.00 | 0.00 | 0.00 | 74 | 1017.3 |
| 20260902031637 | 83 | 158 | 1.0 | 2.0 | 0.00 | 0.00 | 0.00 | 74 | 1017.3 |
| 20260902031137 | 83 | 160 | 1.0 | 2.0 | 0.00 | 0.00 | 0.00 | 74 | 1017.4 |
| 20260902030637 | 83 | 133 | 0.0 | 3.0 | 0.00 | 0.00 | 0.00 | 74 | 1017.4 |
| 20260902030137 | 84 | 153 | 1.0 | 2.0 | 0.00 | 0.00 | 0.00 | 75 | 1017.4 |
| 20260902025637 | 83 | 153 | 1.0 | 3.0 | 0.00 | 0.00 | 0.00 | 75 | 1017.4 |
| 20260902025137 | 83 | 153 | 0.0 | 3.0 | 0.00 | 0.00 | 0.00 | 74 | 1017.4 |
| 20260902024637 | 84 | 108 | 0.0 | 0.0 | 0.00 | 0.00 | 0.00 | 74 | 1017.4 |
| 20260902024137 | 84 | 89 | 0.0 | 0.0 | 0.00 | 0.00 | 0.00 | 75 | 1017.3 |
| 20260902023637 | 85 | 89 | 0.0 | 0.0 | 0.00 | 0.00 | 0.00 | 71 | 1017.1 |
| 20260902023137 | 85 | 89 | 0.0 | 0.0 | 0.00 | 0.00 | 0.00 | 72 | 1017.1 |
| 20260902022637 | 86 | 89 | 0.0 | 0.0 | 0.00 | 0.00 | 0.00 | 70 | 1017.0 |
| 20260902022137 | 86 | 89 | 0.0 | 1.0 | 0.00 | 0.00 | 0.00 | 70 | 1016.9 |
| 20260902021637 | 86 | 89 | 0.0 | 2.0 | 0.00 | 0.00 | 0.00 | 69 | 1016.9 |
| 20260902021137 | 86 | 90 | 0.0 | 1.0 | 0.00 | 0.00 | 0.00 | 70 | 1017.0 |
| 20260902020637 | 86 | 89 | 0.0 | 2.0 | 0.00 | 0.00 | 0.00 | 70 | 1017.0 |
| 20260902020137 | 86 | 78 | 0.0 | 2.0 | 0.00 | 0.00 | 0.00 | 69 | 1016.8 |
| 20260902015637 | 85 | 78 | 0.0 | 3.0 | 0.00 | 0.00 | 0.00 | 70 | 1016.6 |
| 20260902015137 | 85 | 198 | 0.0 | 0.0 | 0.00 | 0.00 | 0.00 | 69 | 1016.5 |
| 20260902014637 | 86 | 203 | 0.0 | 0.0 | 0.00 | 0.00 | 0.00 | 69 | 1016.5 |
| 20260902014137 | 86 | 203 | 0.0 | 0.0 | 0.00 | 0.00 | 0.00 | 69 | 1016.5 |
| 20260902013637 | 86 | 203 | 0.0 | 0.0 | 0.00 | 0.00 | 0.00 | 70 | 1016.2 |
| 20260902013137 | 86 | 203 | 0.0 | 0.0 | 0.00 | 0.00 | 0.00 | 69 | 1016.2 |
| 20260902012637 | 86 | 203 | 0.0 | 0.0 | 0.00 | 0.00 | 0.00 | 69 | 1016.2 |
| 20260902012137 | 86 | 204 | 0.0 | 0.0 | 0.00 | 0.00 | 0.00 | 69 | 1016.2 |
| 20260902011637 | 86 | 204 | 0.0 | 0.0 | 0.00 | 0.00 | 0.00 | 70 | 1016.0 |
| 20260902011137 | 87 | 204 | 0.0 | 0.0 | 0.00 | 0.00 | 0.00 | 70 | 1016.0 |
| 20260902010637 | 87 | 204 | 0.0 | 0.0 | 0.00 | 0.00 | 0.00 | 68 | 1016.0 |
| 20260902010137 | 88 | 204 | 0.0 | 0.0 | 0.00 | 0.00 | 0.00 | 67 | 1016.1 |
| 20260902005637 | 88 | 204 | 0.0 | 0.0 | 0.00 | 0.00 | 0.00 | 66 | 1016.1 |
| 20260902005137 | 88 | 204 | 0.0 | 0.0 | 0.00 | 0.00 | 0.00 | 65 | 1016.1 |
| 20260902004637 | 89 | 204 | 0.0 | 0.0 | 0.00 | 0.00 | 0.00 | 64 | 1016.1 |
| 20260902004137 | 89 | 204 | 0.0 | 0.0 | 0.00 | 0.00 | 0.00 | 63 | 1016.1 |
| 20260902003637 | 90 | 204 | 0.0 | 0.0 | 0.00 | 0.00 | 0.00 | 62 | 1016.2 |
| 20260902003137 | 90 | 204 | 0.0 | 0.0 | 0.00 | 0.00 | 0.00 | 62 | 1016.1 |
| 20260902002637 | 91 | 204 | 0.0 | 0.0 | 0.00 | 0.00 | 0.00 | 60 | 1016.0 |
| 20260902002137 | 91 | 204 | 0.0 | 0.0 | 0.00 | 0.00 | 0.00 | 60 | 1015.9 |
| 20260902001637 | 91 | 204 | 0.0 | 1.0 | 0.00 | 0.00 | 0.00 | 59 | 1015.9 |
| 20260902001137 | 92 | 204 | 0.0 | 1.0 | 0.00 | 0.00 | 0.00 | 59 | 1015.9 |
| 20260902000637 | 92 | 204 | 1.0 | 2.0 | 0.00 | 0.00 | 0.00 | 58 | 1015.9 |
| 20260902000137 | 92 | 204 | 1.0 | 3.0 | 0.00 | 0.00 | 0.00 | 58 | 1015.9 |
| 20260901235637 | 93 | 214 | 2.0 | 3.0 | 0.00 | 0.00 | 0.00 | 58 | 1015.9 |
| 20260901235137 | 93 | 192 | 2.0 | 4.0 | 0.00 | 0.00 | 0.00 | 57 | 1016.0 |
| 20260901234637 | 93 | 193 | 2.0 | 4.0 | 0.00 | 0.00 | 0.00 | 56 | 1016.0 |
| 20260901234137 | 94 | 203 | 2.0 | 5.0 | 0.00 | 0.00 | 0.00 | 55 | 1016.1 |
| 20260901233637 | 94 | 213 | 2.0 | 6.0 | 0.00 | 0.00 | 0.00 | 55 | 1016.1 |
| 20260901233137 | 94 | 185 | 2.0 | 5.0 | 0.00 | 0.00 | 0.00 | 54 | 1016.1 |
| 20260901232638 | 94 | 238 | 2.0 | 4.0 | 0.00 | 0.00 | 0.00 | 55 | 1016.2 |
| 20260901232138 | 95 | 208 | 2.0 | 5.0 | 0.00 | 0.00 | 0.00 | 54 | 1016.2 |
| 20260901231638 | 95 | 186 | 2.0 | 5.0 | 0.00 | 0.00 | 0.00 | 53 | 1016.3 |
| 20260901231138 | 95 | 160 | 2.0 | 6.0 | 0.00 | 0.00 | 0.00 | 53 | 1016.3 |
| 20260901230638 | 95 | 160 | 2.0 | 4.0 | 0.00 | 0.00 | 0.00 | 53 | 1016.3 |
| 20260901230138 | 96 | 99 | 2.0 | 5.0 | 0.00 | 0.00 | 0.00 | 53 | 1016.2 |
| 20260901225638 | 96 | 152 | 2.0 | 4.0 | 0.00 | 0.00 | 0.00 | 53 | 1016.2 |
| 20260901225138 | 96 | 117 | 2.0 | 4.0 | 0.00 | 0.00 | 0.00 | 52 | 1016.2 |
| 20260901224638 | 97 | 178 | 2.0 | 2.0 | 0.00 | 0.00 | 0.00 | 52 | 1016.3 |
| 20260901224138 | 97 | 165 | 2.0 | 4.0 | 0.00 | 0.00 | 0.00 | 52 | 1016.3 |
| 20260901223638 | 97 | 170 | 2.0 | 5.0 | 0.00 | 0.00 | 0.00 | 52 | 1016.3 |
| 20260901223138 | 97 | 82 | 2.0 | 4.0 | 0.00 | 0.00 | 0.00 | 52 | 1016.3 |
| 20260901222638 | 97 | 172 | 2.0 | 6.0 | 0.00 | 0.00 | 0.00 | 51 | 1016.1 |
| 20260901222138 | 98 | 137 | 3.0 | 7.0 | 0.00 | 0.00 | 0.00 | 51 | 1016.2 |
| 20260901221638 | 98 | 138 | 2.0 | 4.0 | 0.00 | 0.00 | 0.00 | 50 | 1016.2 |
| 20260901221138 | 98 | 194 | 2.0 | 5.0 | 0.00 | 0.00 | 0.00 | 50 | 1016.1 |
| 20260901220638 | 98 | 129 | 3.0 | 5.0 | 0.00 | 0.00 | 0.00 | 50 | 1016.2 |
| 20260901220138 | 98 | 252 | 3.0 | 5.0 | 0.00 | 0.00 | 0.00 | 50 | 1016.2 |
| 20260901215638 | 98 | 207 | 2.0 | 8.0 | 0.00 | 0.00 | 0.00 | 49 | 1016.3 |
| 20260901215138 | 98 | 85 | 2.0 | 4.0 | 0.00 | 0.00 | 0.00 | 49 | 1016.3 |
| 20260901214638 | 98 | 162 | 3.0 | 8.0 | 0.00 | 0.00 | 0.00 | 51 | 1016.4 |
| 20260901214138 | 98 | 135 | 3.0 | 10.0 | 0.00 | 0.00 | 0.00 | 50 | 1016.4 |
| 20260901213638 | 99 | 154 | 2.0 | 10.0 | 0.00 | 0.00 | 0.00 | 50 | 1016.5 |
| 20260901213138 | 99 | 157 | 2.0 | 6.0 | 0.00 | 0.00 | 0.00 | 51 | 1016.4 |
| 20260901212638 | 99 | 72 | 2.0 | 6.0 | 0.00 | 0.00 | 0.00 | 51 | 1016.4 |
| 20260901212138 | 98 | 164 | 3.0 | 7.0 | 0.00 | 0.00 | 0.00 | 51 | 1016.4 |
| 20260901211638 | 97 | 113 | 4.0 | 6.0 | 0.00 | 0.00 | 0.00 | 52 | 1016.4 |
| 20260901211138 | 97 | 167 | 3.0 | 9.0 | 0.00 | 0.00 | 0.00 | 52 | 1016.5 |
| 20260901210638 | 97 | 155 | 3.0 | 5.0 | 0.00 | 0.00 | 0.00 | 51 | 1016.5 |
| 20260901210138 | 97 | 23 | 3.0 | 8.0 | 0.00 | 0.00 | 0.00 | 51 | 1016.6 |
| 20260901205638 | 97 | 153 | 3.0 | 10.0 | 0.00 | 0.00 | 0.00 | 52 | 1016.6 |
| 20260901205138 | 97 | 12 | 3.0 | 8.0 | 0.00 | 0.00 | 0.00 | 52 | 1016.6 |
| 20260901204638 | 98 | 194 | 3.0 | 8.0 | 0.00 | 0.00 | 0.00 | 50 | 1016.7 |
| 20260901204138 | 99 | 136 | 3.0 | 8.0 | 0.00 | 0.00 | 0.00 | 49 | 1016.8 |
| 20260901203638 | 100 | 119 | 2.0 | 5.0 | 0.00 | 0.00 | 0.00 | 49 | 1016.7 |
| 20260901203138 | 99 | 151 | 3.0 | 6.0 | 0.00 | 0.00 | 0.00 | 49 | 1016.7 |
| 20260901202638 | 98 | 359 | 3.0 | 9.0 | 0.00 | 0.00 | 0.00 | 50 | 1016.8 |
| 20260901202138 | 98 | 179 | 3.0 | 8.0 | 0.00 | 0.00 | 0.00 | 50 | 1016.9 |
| 20260901201638 | 98 | 183 | 3.0 | 8.0 | 0.00 | 0.00 | 0.00 | 51 | 1017.0 |
| 20260901201138 | 97 | 61 | 3.0 | 6.0 | 0.00 | 0.00 | 0.00 | 52 | 1017.1 |
| 20260901200638 | 97 | 77 | 2.0 | 8.0 | 0.00 | 0.00 | 0.00 | 52 | 1017.0 |
| 20260901200138 | 96 | 125 | 3.0 | 6.0 | 0.00 | 0.00 | 0.00 | 54 | 1017.2 |
| 20260901195638 | 96 | 144 | 3.0 | 8.0 | 0.00 | 0.00 | 0.00 | 53 | 1017.2 |
| 20260901195138 | 97 | 37 | 2.0 | 6.0 | 0.00 | 0.00 | 0.00 | 52 | 1017.1 |
| 20260901194638 | 97 | 334 | 2.0 | 7.0 | 0.00 | 0.00 | 0.00 | 51 | 1017.2 |
| 20260901194138 | 96 | 180 | 2.0 | 4.0 | 0.00 | 0.00 | 0.00 | 50 | 1017.3 |
| 20260901193638 | 97 | 157 | 2.0 | 6.0 | 0.00 | 0.00 | 0.00 | 48 | 1017.5 |
| 20260901193138 | 98 | 104 | 2.0 | 6.0 | 0.00 | 0.00 | 0.00 | 49 | 1017.3 |
| 20260901192638 | 99 | 230 | 1.0 | 5.0 | 0.00 | 0.00 | 0.00 | 48 | 1017.3 |
| 20260901192138 | 100 | 229 | 2.0 | 4.0 | 0.00 | 0.00 | 0.00 | 46 | 1017.5 |
| 20260901191638 | 99 | 238 | 3.0 | 4.0 | 0.00 | 0.00 | 0.00 | 48 | 1017.6 |
| 20260901191138 | 98 | 199 | 3.0 | 6.0 | 0.00 | 0.00 | 0.00 | 48 | 1017.6 |
| 20260901190638 | 97 | 125 | 2.0 | 6.0 | 0.00 | 0.00 | 0.00 | 50 | 1017.6 |
| 20260901190138 | 96 | 214 | 1.0 | 5.0 | 0.00 | 0.00 | 0.00 | 54 | 1017.7 |
| 20260901185638 | 95 | 119 | 1.0 | 3.0 | 0.00 | 0.00 | 0.00 | 54 | 1017.8 |
| 20260901185138 | 95 | 232 | 2.0 | 4.0 | 0.00 | 0.00 | 0.00 | 54 | 1017.8 |
| 20260901184638 | 95 | 174 | 2.0 | 4.0 | 0.00 | 0.00 | 0.00 | 53 | 1017.9 |
| 20260901184138 | 96 | 160 | 3.0 | 6.0 | 0.00 | 0.00 | 0.00 | 51 | 1017.9 |
| 20260901183638 | 96 | 237 | 3.0 | 8.0 | 0.00 | 0.00 | 0.00 | 52 | 1017.9 |
| 20260901183138 | 95 | 182 | 3.0 | 5.0 | 0.00 | 0.00 | 0.00 | 53 | 1018.0 |
| 20260901182638 | 95 | 231 | 3.0 | 6.0 | 0.00 | 0.00 | 0.00 | 54 | 1018.0 |
| 20260901182138 | 95 | 238 | 3.0 | 5.0 | 0.00 | 0.00 | 0.00 | 54 | 1018.1 |
| 20260901181638 | 96 | 206 | 3.0 | 5.0 | 0.00 | 0.00 | 0.00 | 52 | 1018.2 |
| 20260901181138 | 98 | 266 | 2.0 | 5.0 | 0.00 | 0.00 | 0.00 | 51 | 1018.2 |
| 20260901180638 | 98 | 33 | 2.0 | 5.0 | 0.00 | 0.00 | 0.00 | 53 | 1018.3 |
| 20260901180138 | 99 | 185 | 2.0 | 4.0 | 0.00 | 0.00 | 0.00 | 51 | 1018.5 |
| 20260901175638 | 99 | 23 | 2.0 | 4.0 | 0.00 | 0.00 | 0.00 | 52 | 1018.5 |
| 20260901175138 | 99 | 0 | 1.0 | 4.0 | 0.00 | 0.00 | 0.00 | 53 | 1018.5 |
| 20260901174638 | 98 | 27 | 1.0 | 3.0 | 0.00 | 0.00 | 0.00 | 55 | 1018.6 |
| 20260901174138 | 97 | 134 | 2.0 | 5.0 | 0.00 | 0.00 | 0.00 | 54 | 1018.7 |
| 20260901173638 | 97 | 198 | 2.0 | 6.0 | 0.00 | 0.00 | 0.00 | 55 | 1018.7 |
| 20260901173138 | 97 | 175 | 2.0 | 4.0 | 0.00 | 0.00 | 0.00 | 56 | 1018.9 |
| 20260901172638 | 97 | 175 | 3.0 | 5.0 | 0.00 | 0.00 | 0.00 | 55 | 1018.9 |
| 20260901172138 | 97 | 135 | 3.0 | 7.0 | 0.00 | 0.00 | 0.00 | 56 | 1018.9 |
| 20260901171638 | 96 | 230 | 3.0 | 7.0 | 0.00 | 0.00 | 0.00 | 56 | 1019.0 |
| 20260901171138 | 96 | 258 | 4.0 | 8.0 | 0.00 | 0.00 | 0.00 | 57 | 1019.0 |
| 20260901170638 | 96 | 191 | 4.0 | 9.0 | 0.00 | 0.00 | 0.00 | 57 | 1019.0 |
| 20260901170138 | 96 | 236 | 4.0 | 6.0 | 0.00 | 0.00 | 0.00 | 57 | 1019.2 |
| 20260901165638 | 97 | 238 | 3.0 | 7.0 | 0.00 | 0.00 | 0.00 | 56 | 1019.2 |
| 20260901165138 | 97 | 24 | 3.0 | 6.0 | 0.00 | 0.00 | 0.00 | 57 | 1019.2 |
| 20260901164638 | 96 | 252 | 3.0 | 5.0 | 0.00 | 0.00 | 0.00 | 58 | 1019.0 |
| 20260901164138 | 95 | 162 | 1.0 | 8.0 | 0.00 | 0.00 | 0.00 | 59 | 1019.0 |
| 20260901163638 | 94 | 209 | 2.0 | 3.0 | 0.00 | 0.00 | 0.00 | 62 | 1019.0 |
| 20260901163138 | 94 | 212 | 2.0 | 6.0 | 0.00 | 0.00 | 0.00 | 61 | 1019.2 |
| 20260901162638 | 93 | 200 | 3.0 | 4.0 | 0.00 | 0.00 | 0.00 | 63 | 1019.2 |
| 20260901162138 | 93 | 240 | 3.0 | 5.0 | 0.00 | 0.00 | 0.00 | 61 | 1019.2 |
| 20260901161638 | 93 | 259 | 2.0 | 4.0 | 0.00 | 0.00 | 0.00 | 60 | 1019.3 |
| 20260901161138 | 93 | 131 | 2.0 | 3.0 | 0.00 | 0.00 | 0.00 | 60 | 1019.3 |
| 20260901160638 | 94 | 205 | 3.0 | 6.0 | 0.00 | 0.00 | 0.00 | 61 | 1019.3 |
| 20260901160138 | 93 | 231 | 3.0 | 7.0 | 0.00 | 0.00 | 0.00 | 62 | 1019.3 |
| 20260901155638 | 93 | 236 | 4.0 | 6.0 | 0.00 | 0.00 | 0.00 | 61 | 1019.4 |
| 20260901155138 | 94 | 175 | 3.0 | 7.0 | 0.00 | 0.00 | 0.00 | 63 | 1019.5 |
| 20260901154638 | 94 | 200 | 2.0 | 6.0 | 0.00 | 0.00 | 0.00 | 61 | 1019.5 |
| 20260901154138 | 95 | 198 | 1.0 | 4.0 | 0.00 | 0.00 | 0.00 | 61 | 1019.7 |
| 20260901153638 | 95 | 3 | 1.0 | 2.0 | 0.00 | 0.00 | 0.00 | 62 | 1019.8 |
| 20260901153138 | 94 | 307 | 1.0 | 3.0 | 0.00 | 0.00 | 0.00 | 64 | 1019.8 |
| 20260901152638 | 94 | 45 | 1.0 | 3.0 | 0.00 | 0.00 | 0.00 | 65 | 1019.9 |
| 20260901152138 | 93 | 222 | 1.0 | 1.0 | 0.00 | 0.00 | 0.00 | 67 | 1019.9 |
| 20260901151638 | 92 | 221 | 2.0 | 3.0 | 0.00 | 0.00 | 0.00 | 68 | 1019.7 |
| 20260901151138 | 92 | 231 | 2.0 | 5.0 | 0.00 | 0.00 | 0.00 | 68 | 1019.6 |
| 20260901150638 | 92 | 218 | 1.0 | 4.0 | 0.00 | 0.00 | 0.00 | 69 | 1019.7 |
| 20260901150138 | 92 | 130 | 0.0 | 3.0 | 0.00 | 0.00 | 0.00 | 69 | 1019.6 |
| 20260901145638 | 91 | 162 | 1.0 | 2.0 | 0.00 | 0.00 | 0.00 | 68 | 1019.6 |
| 20260901145138 | 91 | 229 | 1.0 | 3.0 | 0.00 | 0.00 | 0.00 | 69 | 1019.6 |
| 20260901144638 | 90 | 153 | 1.0 | 3.0 | 0.00 | 0.00 | 0.00 | 71 | 1019.6 |
| 20260901144138 | 90 | 1 | 1.0 | 2.0 | 0.00 | 0.00 | 0.00 | 71 | 1019.8 |
| 20260901143638 | 89 | 244 | 1.0 | 3.0 | 0.00 | 0.00 | 0.00 | 72 | 1019.6 |
| 20260901143138 | 89 | 257 | 1.0 | 1.0 | 0.00 | 0.00 | 0.00 | 75 | 1019.5 |
| 20260901142638 | 88 | 257 | 1.0 | 3.0 | 0.00 | 0.00 | 0.00 | 75 | 1019.5 |
| 20260901142138 | 87 | 250 | 1.0 | 3.0 | 0.00 | 0.00 | 0.00 | 76 | 1019.4 |
| 20260901141638 | 87 | 259 | 1.0 | 1.0 | 0.00 | 0.00 | 0.00 | 76 | 1019.5 |
| 20260901141138 | 86 | 257 | 1.0 | 4.0 | 0.00 | 0.00 | 0.00 | 77 | 1019.6 |
| 20260901140638 | 86 | 214 | 0.0 | 1.0 | 0.00 | 0.00 | 0.00 | 77 | 1019.6 |
| 20260901140138 | 86 | 214 | 0.0 | 1.0 | 0.00 | 0.00 | 0.00 | 79 | 1019.6 |
| 20260901135638 | 85 | 212 | 0.0 | 2.0 | 0.00 | 0.00 | 0.00 | 80 | 1019.7 |
| 20260901135138 | 83 | 211 | 1.0 | 1.0 | 0.00 | 0.00 | 0.00 | 81 | 1019.8 |
| 20260901134638 | 83 | 211 | 1.0 | 3.0 | 0.00 | 0.00 | 0.00 | 82 | 1019.6 |
| 20260901134138 | 82 | 212 | 1.0 | 2.0 | 0.00 | 0.00 | 0.00 | 82 | 1019.5 |
| 20260901133638 | 81 | 212 | 1.0 | 2.0 | 0.00 | 0.00 | 0.00 | 85 | 1019.6 |
| 20260901133138 | 80 | 217 | 1.0 | 2.0 | 0.00 | 0.00 | 0.00 | 87 | 1019.6 |
| 20260901132638 | 79 | 217 | 1.0 | 3.0 | 0.00 | 0.00 | 0.00 | 89 | 1019.5 |
| 20260901132138 | 78 | 217 | 1.0 | 3.0 | 0.00 | 0.00 | 0.00 | 90 | 1019.5 |
| 20260901131638 | 77 | 217 | 1.0 | 3.0 | 0.00 | 0.00 | 0.00 | 92 | 1019.4 |
| 20260901131138 | 77 | 217 | 1.0 | 3.0 | 0.00 | 0.00 | 0.00 | 92 | 1019.4 |
| 20260901130638 | 76 | 217 | 1.0 | 0.0 | 0.00 | 0.00 | 0.00 | 94 | 1019.3 |
| 20260901130138 | 75 | 216 | 1.0 | 4.0 | 0.00 | 0.00 | 0.00 | 94 | 1019.2 |
| 20260901125638 | 75 | 214 | 0.0 | 3.0 | 0.00 | 0.00 | 0.00 | 94 | 1019.2 |
| 20260901125138 | 74 | 163 | 0.0 | 0.0 | 0.00 | 0.00 | 0.00 | 94 | 1019.2 |
| 20260901124638 | 73 | 163 | 0.0 | 0.0 | 0.00 | 0.00 | 0.00 | 95 | 1019.2 |
| 20260901124138 | 73 | 163 | 0.0 | 0.0 | 0.00 | 0.00 | 0.00 | 94 | 1019.3 |
| 20260901123638 | 73 | 163 | 0.0 | 0.0 | 0.00 | 0.00 | 0.00 | 95 | 1019.3 |
| 20260901123138 | 72 | 163 | 0.0 | 0.0 | 0.00 | 0.00 | 0.00 | 95 | 1019.2 |
| 20260901122638 | 72 | 163 | 0.0 | 0.0 | 0.00 | 0.00 | 0.00 | 95 | 1019.2 |
| 20260901122138 | 72 | 163 | 0.0 | 0.0 | 0.00 | 0.00 | 0.00 | 95 | 1019.2 |
| 20260901121638 | 72 | 163 | 0.0 | 0.0 | 0.00 | 0.00 | 0.00 | 95 | 1019.1 |
| 20260901121138 | 72 | 163 | 0.0 | 0.0 | 0.00 | 0.00 | 0.00 | 95 | 1019.0 |
| 20260901120638 | 71 | 163 | 0.0 | 0.0 | 0.00 | 0.00 | 0.00 | 95 | 1019.1 |
| 20260901120138 | 71 | 165 | 0.0 | 0.0 | 0.00 | 0.00 | 0.00 | 95 | 1019.0 |
| 20260901115638 | 71 | 165 | 0.0 | 0.0 | 0.00 | 0.00 | 0.00 | 95 | 1018.9 |
| 20260901115138 | 71 | 165 | 0.0 | 0.0 | 0.00 | 0.00 | 0.00 | 95 | 1018.8 |
| 20260901114638 | 71 | 165 | 0.0 | 0.0 | 0.00 | 0.00 | 0.00 | 95 | 1018.9 |
| 20260901114138 | 71 | 165 | 0.0 | 0.0 | 0.00 | 0.00 | 0.00 | 95 | 1018.8 |
| 20260901113638 | 71 | 165 | 0.0 | 1.0 | 0.00 | 0.00 | 0.00 | 95 | 1018.8 |
| 20260901113138 | 71 | 163 | 0.0 | 0.0 | 0.00 | 0.00 | 0.00 | 95 | 1018.7 |
| 20260901112638 | 71 | 163 | 0.0 | 0.0 | 0.00 | 0.00 | 0.00 | 95 | 1018.7 |
| 20260901112138 | 71 | 163 | 0.0 | 0.0 | 0.00 | 0.00 | 0.00 | 95 | 1018.6 |
| 20260901111638 | 71 | 163 | 0.0 | 0.0 | 0.00 | 0.00 | 0.00 | 95 | 1018.7 |
| 20260901111138 | 71 | 109 | 0.0 | 0.0 | 0.00 | 0.00 | 0.00 | 95 | 1018.5 |
| 20260901110638 | 71 | 109 | 0.0 | 0.0 | 0.00 | 0.00 | 0.00 | 94 | 1018.6 |
| 20260901110138 | 71 | 109 | 0.0 | 1.0 | 0.00 | 0.00 | 0.00 | 94 | 1018.5 |
| 20260901105639 | 72 | 108 | 0.0 | 0.0 | 0.00 | 0.00 | 0.00 | 94 | 1018.4 |
| 20260901105138 | 72 | 108 | 0.0 | 1.0 | 0.00 | 0.00 | 0.00 | 94 | 1018.4 |
| 20260901104639 | 72 | 102 | 0.0 | 0.0 | 0.00 | 0.00 | 0.00 | 94 | 1018.4 |
| 20260901104138 | 73 | 101 | 0.0 | 0.0 | 0.00 | 0.00 | 0.00 | 93 | 1018.3 |
| 20260901103639 | 74 | 101 | 0.0 | 0.0 | 0.00 | 0.00 | 0.00 | 93 | 1018.2 |
| 20260901103139 | 74 | 101 | 0.0 | 0.0 | 0.00 | 0.00 | 0.00 | 93 | 1018.2 |
| 20260901102639 | 74 | 102 | 0.0 | 0.0 | 0.00 | 0.00 | 0.00 | 93 | 1018.0 |
| 20260901102139 | 74 | 102 | 0.0 | 0.0 | 0.00 | 0.00 | 0.00 | 93 | 1018.1 |
| 20260901101639 | 74 | 104 | 0.0 | 0.0 | 0.00 | 0.00 | 0.00 | 93 | 1018.0 |
| 20260901101139 | 74 | 103 | 0.0 | 0.0 | 0.00 | 0.00 | 0.00 | 93 | 1018.0 |
| 20260901100639 | 74 | 104 | 0.0 | 0.0 | 0.00 | 0.00 | 0.00 | 93 | 1017.9 |
| 20260901100139 | 74 | 104 | 0.0 | 0.0 | 0.00 | 0.00 | 0.00 | 92 | 1018.0 |
| 20260901095639 | 74 | 103 | 0.0 | 0.0 | 0.00 | 0.00 | 0.00 | 92 | 1017.9 |
| 20260901095139 | 74 | 104 | 0.0 | 0.0 | 0.00 | 0.00 | 0.00 | 92 | 1017.9 |
| 20260901094639 | 74 | 103 | 0.0 | 0.0 | 0.00 | 0.00 | 0.00 | 91 | 1017.8 |
| 20260901094139 | 75 | 104 | 0.0 | 0.0 | 0.00 | 0.00 | 0.00 | 91 | 1017.9 |
| 20260901093639 | 75 | 104 | 0.0 | 2.0 | 0.00 | 0.00 | 0.00 | 91 | 1017.8 |
| 20260901093139 | 75 | 103 | 0.0 | 3.0 | 0.00 | 0.00 | 0.00 | 92 | 1018.0 |
| 20260901092639 | 75 | 126 | 0.0 | 2.0 | 0.00 | 0.00 | 0.00 | 92 | 1017.8 |
| 20260901092139 | 74 | 136 | 0.0 | 1.0 | 0.00 | 0.00 | 0.00 | 92 | 1017.8 |
| 20260901091639 | 74 | 136 | 0.0 | 1.0 | 0.00 | 0.00 | 0.00 | 92 | 1017.9 |
| 20260901091139 | 75 | 136 | 0.0 | 1.0 | 0.00 | 0.00 | 0.00 | 91 | 1017.7 |
| 20260901090639 | 75 | 136 | 0.0 | 0.0 | 0.00 | 0.00 | 0.00 | 91 | 1017.6 |
| 20260901090139 | 75 | 136 | 0.0 | 0.0 | 0.00 | 0.00 | 0.00 | 91 | 1017.7 |
| 20260901085639 | 75 | 136 | 0.0 | 0.0 | 0.00 | 0.00 | 0.00 | 91 | 1017.6 |
| 20260901085139 | 76 | 136 | 0.0 | 0.0 | 0.00 | 0.00 | 0.00 | 90 | 1017.6 |
| 20260901084639 | 76 | 136 | 0.0 | 0.0 | 0.00 | 0.00 | 0.00 | 90 | 1017.6 |
| 20260901084139 | 76 | 136 | 0.0 | 0.0 | 0.00 | 0.00 | 0.00 | 90 | 1017.6 |
| 20260901083639 | 76 | 136 | 0.0 | 0.0 | 0.00 | 0.00 | 0.00 | 90 | 1017.7 |
| 20260901083139 | 76 | 136 | 0.0 | 1.0 | 0.00 | 0.00 | 0.00 | 90 | 1017.6 |
| 20260901082639 | 76 | 136 | 0.0 | 1.0 | 0.00 | 0.00 | 0.00 | 90 | 1017.6 |
| 20260901082139 | 76 | 136 | 0.0 | 1.0 | 0.00 | 0.00 | 0.00 | 91 | 1017.6 |
| 20260901081639 | 76 | 136 | 0.0 | 1.0 | 0.00 | 0.00 | 0.00 | 90 | 1017.6 |
| 20260901081139 | 76 | 136 | 0.0 | 0.0 | 0.00 | 0.00 | 0.00 | 90 | 1017.6 |
| 20260901080639 | 76 | 136 | 0.0 | 0.0 | 0.00 | 0.00 | 0.00 | 90 | 1017.6 |
| 20260901080139 | 76 | 136 | 0.0 | 1.0 | 0.00 | 0.00 | 0.00 | 90 | 1017.6 |
| 20260901075639 | 76 | 138 | 0.0 | 3.0 | 0.00 | 0.00 | 0.00 | 91 | 1017.7 |
| 20260901075139 | 75 | 120 | 0.0 | 2.0 | 0.00 | 0.00 | 0.00 | 91 | 1017.6 |
| 20260901074639 | 75 | 143 | 0.0 | 2.0 | 0.00 | 0.00 | 0.00 | 92 | 1017.6 |
| 20260901074139 | 75 | 141 | 0.0 | 3.0 | 0.00 | 0.00 | 0.00 | 92 | 1017.5 |
| 20260901073639 | 75 | 147 | 0.0 | 1.0 | 0.00 | 0.00 | 0.00 | 92 | 1017.6 |
| 20260901073139 | 75 | 147 | 0.0 | 2.0 | 0.00 | 0.00 | 0.00 | 92 | 1017.6 |
| 20260901072639 | 75 | 120 | 0.0 | 0.0 | 0.00 | 0.00 | 0.00 | 92 | 1017.7 |
| 20260901072139 | 75 | 119 | 0.0 | 0.0 | 0.00 | 0.00 | 0.00 | 92 | 1017.6 |
| 20260901071639 | 75 | 113 | 0.0 | 0.0 | 0.00 | 0.00 | 0.00 | 91 | 1017.6 |
| 20260901071139 | 76 | 113 | 0.0 | 0.0 | 0.00 | 0.00 | 0.00 | 90 | 1017.5 |
| 20260901070639 | 76 | 113 | 0.0 | 0.0 | 0.00 | 0.00 | 0.00 | 90 | 1017.4 |
| 20260901070139 | 76 | 113 | 0.0 | 1.0 | 0.00 | 0.00 | 0.00 | 90 | 1017.4 |
| 20260901065639 | 76 | 113 | 0.0 | 1.0 | 0.00 | 0.00 | 0.00 | 89 | 1017.5 |
| 20260901065139 | 76 | 113 | 0.0 | 0.0 | 0.00 | 0.00 | 0.00 | 89 | 1017.5 |
| 20260901064639 | 77 | 113 | 0.0 | 0.0 | 0.00 | 0.00 | 0.00 | 88 | 1017.6 |
| 20260901064139 | 77 | 113 | 0.0 | 1.0 | 0.00 | 0.00 | 0.00 | 87 | 1017.6 |
| 20260901063639 | 78 | 113 | 0.0 | 1.0 | 0.00 | 0.00 | 0.00 | 87 | 1017.6 |
| 20260901063139 | 78 | 113 | 1.0 | 2.0 | 0.00 | 0.00 | 0.00 | 87 | 1017.7 |
| 20260901062639 | 78 | 59 | 1.0 | 2.0 | 0.00 | 0.00 | 0.00 | 87 | 1017.7 |
| 20260901062139 | 78 | 85 | 1.0 | 3.0 | 0.00 | 0.00 | 0.00 | 87 | 1017.7 |
| 20260901061639 | 78 | 115 | 1.0 | 3.0 | 0.00 | 0.00 | 0.00 | 86 | 1017.7 |
| 20260901061139 | 78 | 93 | 1.0 | 2.0 | 0.00 | 0.00 | 0.00 | 86 | 1017.6 |
| 20260901060639 | 78 | 96 | 1.0 | 3.0 | 0.00 | 0.00 | 0.00 | 86 | 1017.6 |
| 20260901060139 | 78 | 85 | 1.0 | 3.0 | 0.00 | 0.00 | 0.00 | 87 | 1017.6 |
| 20260901055639 | 78 | 98 | 0.0 | 3.0 | 0.00 | 0.00 | 0.00 | 87 | 1017.4 |
| 20260901055139 | 78 | 74 | 0.0 | 2.0 | 0.00 | 0.00 | 0.00 | 87 | 1017.4 |
| 20260901054639 | 77 | 72 | 0.0 | 0.0 | 0.00 | 0.00 | 0.00 | 87 | 1017.6 |
| 20260901054139 | 77 | 143 | 0.0 | 0.0 | 0.00 | 0.00 | 0.00 | 87 | 1017.6 |
| 20260901053639 | 77 | 143 | 0.0 | 2.0 | 0.00 | 0.00 | 0.00 | 87 | 1017.6 |
| 20260901053139 | 78 | 143 | 0.0 | 0.0 | 0.00 | 0.00 | 0.00 | 87 | 1017.6 |
| 20260901052639 | 78 | 143 | 0.0 | 1.0 | 0.00 | 0.00 | 0.00 | 86 | 1017.6 |
| 20260901052139 | 78 | 143 | 0.0 | 0.0 | 0.00 | 0.00 | 0.00 | 86 | 1017.7 |
| 20260901051639 | 78 | 143 | 0.0 | 2.0 | 0.00 | 0.00 | 0.00 | 85 | 1017.6 |
| 20260901051139 | 78 | 145 | 0.0 | 2.0 | 0.00 | 0.00 | 0.00 | 86 | 1017.7 |
| 20260901050639 | 78 | 148 | 0.0 | 1.0 | 0.00 | 0.00 | 0.00 | 85 | 1017.5 |
| 20260901050139 | 78 | 148 | 0.0 | 0.0 | 0.00 | 0.00 | 0.00 | 85 | 1017.6 |